カタログに戻る

SL-14 DEB

運用中PO
NORAD 45319·DEBRIS·🇷🇺 Russia

打ち上げ Aug 15, 1991 から Plesetsk Cosmodrome

Loading…

次のパス (今後24時間)

TLE

最新Source: Space-Track

元期: Sep 14, 2026, 07:53 UTC

1 45319U 91056BH  26257.32848258  .00000724  00000-0  12900-2 0  9992
2 45319  82.5824  24.2904 0078617 348.0121  11.9141 13.39712112319181

AllMySatでSL-14 DEBをリアルタイム追跡

Download on the App Store